Simultaneous Nadir Overpasses (SNOs) Predictions

Prediction of SNOs between LANDSAT-8 and METOP-B Satellite Orbit:

Table of predicted SNOs for the next 14.0 days since TLE Epoch: 4/27/2017
Index Date (LANDSAT-8) Time (LANDSAT-8) Lat,Lon (LANDSAT-8) SZA (LANDSAT-8 ) Date (METOP-B) Time (METOP-B) Lat,Lon (METOP-B) SZA (METOP-B ) Distance(km) Time Diff (sec)
1 04/29/2017 12:33:31 -81.15,-147.96 111.24 04/29/2017 12:33:09 -81.16,-147.82 111.23 2.45 22
2 04/29/2017 13:22:56 81.18, 20.11 68.82 04/29/2017 13:23:48 81.18, 20.01 68.83 1.76 52
3 05/02/2017 08:07:45 -81.15, -81.58 112.08 05/02/2017 08:07:31 -81.15, -81.60 112.09 0.59 14
4 05/02/2017 08:57:10 81.17, 86.44 67.97 05/02/2017 08:58:09 81.18, 86.58 68.01 2.40 59
5 05/05/2017 03:41:57 -81.16, -14.88 112.85 05/05/2017 03:41:51 -81.16, -15.03 112.87 2.56 6
6 05/05/2017 04:31:22 81.19, 153.11 67.20 05/05/2017 04:32:29 81.19, 153.12 67.23 0.15 67
7 05/07/2017 22:26:44 81.15,-116.28 66.36 05/07/2017 22:25:32 81.15,-116.37 66.31 1.62 72
8 05/07/2017 23:16:10 -81.18, 51.78 113.59 05/07/2017 23:16:11 -81.18, 51.89 113.58 1.98 1
9 05/08/2017 00:05:03 81.71,-127.54 68.23 05/08/2017 00:06:16 81.36,-127.02 68.14 40.28 73
10 05/10/2017 18:00:58 81.14, -50.06 65.59 05/10/2017 17:59:54 81.14, -50.25 65.54 3.32 64




NCC Satellite Simultaneous Nadir Overpasses (SNOs) Prediction Service
